This is the latest recevied weather packets stored in our database for station/object G1OCN-WX. If no packets are shown the sender has not sent any weather packets the latest 1 day(s).
| Time | Temp. | Humidity | Pressure | Rain* | Wind** | Luminosity | Snow |
|---|---|---|---|---|---|---|---|
| 1778054725 | 8.33° C | 85% | 1013.8 hPa | 0.25 mm | 3.13 m/s, 63° | - | - |
| 1778054665 | 8.33° C | 85% | 1013.8 hPa | 0.25 mm | 3.58 m/s, 67° | - | - |
| 1778054605 | 8.33° C | 84% | 1013.7 hPa | 0.25 mm | 4.02 m/s, 69° | - | - |
| 1778054545 | 8.33° C | 84% | 1013.7 hPa | 0.25 mm | 5.36 m/s, 67° | - | - |
| 1778054485 | 8.33° C | 84% | 1013.8 hPa | 0.25 mm | 4.47 m/s, 62° | - | - |
| 1778054425 | 8.33° C | 85% | 1013.8 hPa | 0.25 mm | 4.02 m/s, 62° | - | - |
| 1778054365 | 8.33° C | 85% | 1013.8 hPa | 0.25 mm | 4.47 m/s, 64° | - | - |
| 1778054305 | 8.33° C | 85% | 1013.7 hPa | 0.25 mm | 4.02 m/s, 67° | - | - |
| 1778054245 | 8.33° C | 85% | 1013.8 hPa | 0.25 mm | 4.02 m/s, 62° | - | - |
| 1778054185 | 8.33° C | 85% | 1013.7 hPa | 0.25 mm | 4.02 m/s, 64° | - | - |
| 1778054125 | 8.33° C | 85% | 1013.7 hPa | 0.25 mm | 4.02 m/s, 57° | - | - |
| 1778054064 | 8.33° C | 85% | 1013.7 hPa | 0.25 mm | 4.02 m/s, 71° | - | - |
| 1778054004 | 8.33° C | 85% | 1013.7 hPa | 0.25 mm | 4.02 m/s, 67° | - | - |
| 1778053944 | 8.33° C | 85% | 1013.7 hPa | 0.25 mm | 4.47 m/s, 65° | - | - |
| 1778053884 | 8.33° C | 85% | 1013.7 hPa | 0.25 mm | 5.81 m/s, 71° | - | - |
| 1778053824 | 8.33° C | 85% | 1013.7 hPa | 0.25 mm | 5.81 m/s, 67° | - | - |
| 1778053769 | 8.33° C | 85% | 1013.7 hPa | 0.25 mm | 4.47 m/s, 65° | - | - |
| 1778053704 | 8.33° C | 85% | 1013.7 hPa | 0.25 mm | 4.02 m/s, 67° | - | - |
| 1778053644 | 8.33° C | 85% | 1013.6 hPa | 0.25 mm | 5.36 m/s, 68° | - | - |
| 1778053584 | 8.33° C | 85% | 1013.6 hPa | 0.25 mm | 5.81 m/s, 66° | - | - |
| 1778053524 | 8.33° C | 85% | 1013.6 hPa | 0.25 mm | 5.36 m/s, 70° | - | - |
| 1778053463 | 8.33° C | 85% | 1013.6 hPa | 0.25 mm | 5.81 m/s, 64° | - | - |
| 1778053403 | 8.33° C | 85% | 1013.6 hPa | 0.25 mm | 4.47 m/s, 71° | - | - |
| 1778053343 | 8.33° C | 86% | 1013.6 hPa | 0.25 mm | 5.36 m/s, 66° | - | - |
| 1778053283 | 8.33° C | 86% | 1013.6 hPa | 0.25 mm | 4.02 m/s, 71° | - | - |
* Rain latest hour (hover to see other rain measurements)
** Current wind speed in m/s (hover to see current wind gust speed)